2008 YB3

Japanese version
Home page
Updated on August 1, 2010

---------------------------------------------------------------------

* Profile

Discovery Date December 18, 2008
Magnitude 18.1 mag
Discoverer Siding Spring Survey

* Orbital Elements

The following orbital elements are taken from MPO178089

Epoch 2010 July 23.0 TT = JDT 2455400.5                 MPC
M 354.51712              (2000.0)            P               Q
n   0.02476325     Peri.  330.51365     -0.45088486     +0.02068922
a  11.6572915      Node   112.47619     +0.88222296     +0.16220002
e   0.4435861      Incl.  105.05030     -0.13559308     +0.98654098
P  39.8            H    9.4           G   0.15           U   1
From 98 observations at 2 oppositions, 2008-2010, mean residual 0".33.

* Magnitudes Graph

        H = 9.0  G = 0.15

---------------------------------------------------------------------

The orbital elements are published at the MPC Ephemerides and Orbital Elements.
The magnitudes graphs are made with Comet for Windows.

---------------------------------------------------------------------

Copyright(C) Seiichi Yoshida (comet@aerith.net). All rights reserved.